Regional Weather Roundup
Issued by NWS

Home | Current Version | Previous Version | Graphics & Text | Print | Product List | Glossary On
Versions: 1 2 3 4 5 6 7 8 9 10 11 12 13 14 15 16 17 18 19 20 21 22 23 24 25 26 27 28 29 30 31 32 33 34 35 36 37 38 39 40 41 42 43 44 45 46 47 48 49 50
000
ASUS43 KOAX 230502
RWRNE

WEATHER ROUNDUP FOR NEBRASKA
NATIONAL WEATHER SERVICE OMAHA NE
1200 AM CDT FRI JUN 23 2017

NOTES: SATELLITE DATA IS BEING USED TO AUGMENT CLOUD COVER ABOVE
       12000 FEET.
       "FAIR" INDICATES FEW OR NO CLOUDS BELOW 12,000 FEET WITH NO
       SIGNIFICANT WEATHER AND/OR OBSTRUCTIONS TO VISIBILITY.

  * THESE STATIONS DO NOT REPORT WEATHER SUCH AS RAIN...SNOW OR FOG.

NEZ001>004-019>022-054>056-230600-
NEBRASKA PANHANDLE

CITY           SKY/WX    TMP DP  RH WIND       PRES   REMARKS
SCOTTSBLUFF    CLOUDY    68  46  45 NE12      30.02R
ALLIANCE       CLOUDY    65  44  46 NE12      30.02R
CHADRON        CLOUDY    63  37  38 NE12      30.05R
GORDON         MOCLDY    60  43  53 N17       30.04R
KIMBALL        CLOUDY    65  53  63 E12       30.05R
SIDNEY         CLOUDY    62  53  72 E8        30.03R
$$

NEZ057>060-069>072-079>082-230600-
SOUTHWEST NEBRASKA

CITY           SKY/WX    TMP DP  RH WIND       PRES   REMARKS
NORTH PLATTE   CLEAR     65  49  56 NE5       29.95R
IMPERIAL       PTCLDY    66  49  54 NE8       29.96R
LEXINGTON      PTCLDY    65  53  66 N7        29.91S
MCCOOK         PTCLDY    69  52  54 NE17      29.90R
OGALLALA       CLOUDY    67  49  51 NE8       29.98R
$$

NEZ005>010-023>029-035>040-094-230600-
NORTH CENTRAL NEBRASKA

CITY           SKY/WX    TMP DP  RH WIND       PRES   REMARKS
VALENTINE      CLEAR     55  43  63 W7        29.98R
AINSWORTH      CLEAR     58  50  75 CALM      29.96R
BROKEN BOW     CLOUDY    65  50  58 N12       29.92R
O`NEILL        CLEAR     58  53  80 N5        29.91F
ORD            CLEAR     65  48  54 N6        29.89S
THEDFORD       PTCLDY    57  50  78 NW3       29.99R
$$

NEZ041-046>049-061>064-073>077-083>087-230600-
SOUTH CENTRAL NEBRASKA

CITY           SKY/WX    TMP DP  RH WIND       PRES   REMARKS
GRAND ISLAND   PTCLDY    68  62  81 N13       29.88R
AURORA         CLEAR     70  62  75 N16       29.86R
HASTINGS       PTCLDY    70  60  70 N15       29.88R
HEBRON         CLOUDY    76  65  67 N13G25    29.80R
HOLDREGE       PTCLDY    67  55  66 N17G23    29.89R
KEARNEY *      PTCLDY    68  55  64 N13       29.90R
$$

NEZ011>018-030>034-042>045-230600-
NORTHEAST NEBRASKA

CITY           SKY/WX    TMP DP  RH WIND       PRES   REMARKS
NORFOLK        PTCLDY    68  57  68 N12       29.87R
ALBION         PTCLDY    68  53  58 N9        29.88R
BLAIR          CLOUDY    72  64  73 N13G20    29.80R
FREMONT        CLOUDY    73  62  69 N12       29.83R
TEKAMAH        CLOUDY    72  62  71 N13       29.81R
WAYNE          MOCLDY    67  55  65 N10       29.85S
$$

NEZ050>053-065>068-078-088>093-230600-
SOUTHEAST NEBRASKA

CITY           SKY/WX    TMP DP  RH WIND       PRES   REMARKS
LINCOLN        LGT RAIN  74  65  73 N18G30    29.80R
OMAHA EPPLEY   LGT RAIN  74  64  71 N20G26    29.76R
BEATRICE       CLOUDY    79  66  64 N17G25    29.76R
FALLS CITY     PTCLDY    77  72  84 S7        29.69S
NEBRASKA CITY  CLOUDY    73  72  99 NW6       29.75R
PLATTSMOUTH    RAIN      74  68  82 N9        29.75R
$$

NEZ044-045-051>053-067-230600-
OMAHA AREA

CITY           SKY/WX    TMP DP  RH WIND       PRES   REMARKS
OMAHA EPPLEY   LGT RAIN  74  64  71 N20G26    29.76R
BLAIR          CLOUDY    72  64  73 N13G20    29.80R
FREMONT        CLOUDY    73  62  69 N12       29.83R
MILLARD        DRIZZLE   76  67  73 N8        29.78R
OFFUTT AFB     TSTM      75  66  73 N14G24    29.75R
PLATTSMOUTH    RAIN      74  68  82 N9        29.75R
WAHOO          CLOUDY    73  61  65 N22G28    29.81R
$$



USA.gov is the U.S. government's official web portal to all federal, state and local government web resources and services.